Вернуться в каталог

STARLINK-30754

АктивенСвязьVLEO
NORAD 58124·PAYLOAD·🇺🇸 United States

Запущен Oct 22, 2023 с Cape Canaveral Space Force Station

Loading…

Ближайшие Пролёты (ближайшие 24 часа)

TLE

СвежийSource: CelesTrak SupGP

Эпоха: Sep 15, 2026, 02:58 UTC

1 58124C 23162G   26258.12409722  .00059786  00000+0  21656-2 0  2588
2 58124  43.0009 142.5944 0001475 279.5156 285.8722 15.27545732    15

Отслеживайте STARLINK-30754 в реальном времени с AllMySat

Download on the App Store